Location: Ore Lake
(42.4733°N, 83.8017°W)
Time: 07:08:32
(UTC-04:00)

Daily predictions for brighter satellites

Satellite Brightness Start Highest point End
(mag) Time Altitude Azimuth Time Altitude Azimuth Time Altitude Azimuth
Cosmos 2263 Rocket 2.5 21:27:06 10° SSW 21:32:47 76° WNW 21:38:27 10° NNE
CENTAUR R/B 3.2 21:26:36 10° NNW 21:34:25 73° NE 21:42:42 10° SE
FENGYUN 3A 4.4 21:31:02 10° S 21:36:20 57° W 21:41:39 10° NNW
SL-27 R/B 3.9 21:36:13 10° N 21:39:18 25° ENE 21:42:21 10° ESE
SL-8 R/B 4.1 21:36:26 10° SSW 21:40:57 41° SE 21:45:29 10° ENE
YAOGAN 6 4.3 21:40:32 10° ESE 21:43:00 18° ENE 21:45:28 10° NNE
NOSS 2-2 (D) 4.0 21:39:48 10° S 21:43:35 37° ESE 21:47:52 10° NE
In-Cosmos 22 Rocket 4.5 21:39:03 10° SSW 21:44:53 80° W 21:50:43 10° N
Coronas F rocket 1.5 21:42:45 10° S 21:45:18 46° E 21:47:52 10° NNE
Cosmos 2184 Rocket 4.0 21:41:13 10° S 21:47:16 62° E 21:53:21 10° NNE
deb Chang Zheng 4 3.8 21:43:38 10° NNE 21:47:55 49° E 21:52:12 10° S
Cosmos 1606 4.1 21:48:10 10° NNE 21:51:25 24° ENE 21:54:20 12° SE
Meteor 2-10 Rocket 3.8 21:51:38 10° N 21:57:31 87° E 22:03:15 10° S
Cosmos 1624 Rocket 4.0 21:52:53 10° S 21:58:04 63° ESE 22:03:19 10° NNE
NOSS 2-2 (C) 3.6 21:54:12 10° SSW 21:58:11 53° ESE 22:02:45 10° NE
Cosmos 1892 2.7 21:55:49 10° S 21:59:38 89° E 22:03:30 10° N
Envisat 3.0 21:54:52 10° SSE 21:59:56 76° ENE 22:05:01 10° N
H-2A R/B 4.0 21:56:41 10° E 21:59:56 16° ENE 22:03:09 10° NNE
SL-08 ROCKET BODY 4.4 21:54:28 10° S 22:00:29 71° E 22:06:25 10° NNE
USA 186 4.4 21:58:46 10° SW 22:01:00 19° W 22:03:20 10° NW
Cosmos 1733 Rocket 3.0 21:59:31 10° S 22:03:56 76° E 22:08:20 10° N
Meteor 2-6 Rocket 4.4 21:59:47 10° N 22:05:45 65° ENE 22:11:34 10° SSE
CZ-4 SHROUD 3.7 22:08:16 17° SE 22:10:21 42° ENE 22:13:19 10° N
NOSS 8 (A) 4.4 22:09:05 10° SSW 22:12:36 83° SE 22:16:21 10° NE
ERBS 2.3 22:10:48 10° NW 22:14:18 89° NE 22:16:36 20° SE
SPOT 1/Viking Rocket 4.1 22:10:27 14° SE 22:14:29 43° ENE 22:19:25 10° N
NOSS 2-2 (E) 3.6 22:13:13 10° SW 22:17:23 90° SE 22:22:19 10° NE
Cosmos 407 Rocket 3.7 22:12:34 10° NNW 22:17:48 62° ENE 22:21:51 17° SE
Cosmos 1238 Rocket 3.3 22:17:50 10° NNE 22:20:37 30° E 22:21:59 22° ESE
Cosmos 1452 Rocket 4.0 22:17:04 10° S 22:21:56 40° ESE 22:26:49 10° NE
Cosmos 2074 Rocket 4.4 22:16:40 10° SSW 22:22:55 68° W 22:29:11 10° N
Nimbus 7 Rocket 4.4 22:17:00 10° NNE 22:22:57 88° ESE 22:28:56 10° SSW
SPOT 5 3.1 22:19:21 11° SSE 22:24:21 89° WSW 22:29:44 10° NNW
COSMOS 2406 3.4 22:20:17 10° NNW 22:26:01 71° WSW 22:30:59 14° SSE
EO 1 Delta rocket 4.4 22:20:18 10° N 22:27:06 90° WNW 22:32:24 10° S
Cosmos 1190 Rocket 4.0 22:23:12 10° NNW 22:28:25 87° WSW 22:32:30 17° SSE
H-2A R/B 2.8 22:24:30 10° S 22:28:46 52° W 22:32:57 10° NNW
ERS-1 Rocket 4.2 22:24:15 10° SSW 22:28:55 38° W 22:33:38 10° NNW
BREEZE-M TANK 4.3 22:09:12 10° W 22:30:47 76° NNW 22:35:10 10° ENE
PSLV R/B 3.0 22:29:27 22° S 22:31:11 83° W 22:34:08 10° NNW
Cosmos 2084 4.4 22:32:17 22° ESE 22:32:17 22° ESE 22:34:57 10° ENE
MetOp-B 4.1 22:28:34 14° SSE 22:33:09 89° ENE 22:38:32 10° NNW
Cosmos 1140 Rocket 4.4 22:30:09 10° N 22:34:49 34° ENE 22:37:36 20° ESE
Cosmos 1862 3.3 22:33:23 17° S 22:36:23 63° E 22:40:26 10° NNE
Nadezhda 3 Rocket 4.0 22:30:11 10° N 22:36:34 78° E 22:41:46 16° SSE
Terra 3.1 22:37:59 19° ESE 22:40:08 27° ENE 22:44:06 10° N
ARGOS 3.2 22:38:34 21° SSE 22:42:07 66° ENE 22:47:27 10° N
ATLAS 5 CENTAUR R/B 2.8 22:36:20 10° NW 22:42:16 57° WSW 22:46:55 18° SSE
Okean 2 Rocket 3.4 22:42:46 26° SSE 22:44:50 45° E 22:49:03 10° NNE
PSLV R/B 4.0 22:42:40 10° W 22:45:57 40° SSW 22:46:43 34° SSE
Cosmos 2278 Rocket 2.4 22:43:31 14° S 22:48:12 49° ESE 22:53:39 10° NE
Sich 1 Rocket 4.1 22:43:46 10° SSW 22:48:17 62° W 22:52:51 10° N
Abrixas rocket 4.5 22:46:53 10° W 22:48:57 15° SW 22:49:51 14° SSW
USA 234 3.4 22:43:20 10° ENE 22:49:40 50° SE 22:55:57 10° SSW
Cosmos 1844 3.7 22:44:49 10° SSW 22:50:33 78° ESE 22:56:22 10° NNE
CZ-4B R/B 3.3 22:45:57 10° NNE 22:50:58 75° ESE 22:54:54 16° S
Cosmos 2341 Rocket 4.0 22:46:29 11° S 22:52:33 81° E 22:58:51 10° N
Cosmos 1833 Rocket 4.3 22:49:51 10° N 22:54:16 23° NE 22:57:19 15° E
CZ-4C R/B 3.8 22:54:26 34° ESE 22:55:32 43° ENE 22:59:21 10° N
Cosmos 1825 2.1 22:54:31 23° S 22:56:48 84° W 23:00:39 10° N
Cosmos 676 Rocket 4.0 22:52:55 10° NNW 22:58:08 80° WSW 23:01:01 27° SSE
Cosmos 1844 Rocket 3.1 22:56:12 10° SW 23:01:49 65° WNW 23:07:27 10° NNE
Timation 2 Rocket 4.2 22:56:29 10° NNW 23:02:23 52° ENE 23:05:20 28° ESE
Meteor 1-27 Rocket 4.1 22:57:06 10° NNW 23:02:36 59° W 23:06:41 18° S
Cosmos 1184 Rocket 2.7 23:04:01 44° S 23:04:58 88° W 23:08:20 10° N
Cosmos 1954 Rocket 3.9 23:00:38 10° NNW 23:05:51 87° WSW 23:08:20 32° SSE
Cosmos 1174 3.0 23:03:10 10° NW 23:06:28 75° WSW 23:06:47 65° S
Cosmos 2082 Rocket 3.2 23:01:50 10° N 23:07:03 34° ENE 23:09:37 23° ESE
Cosmos 1782 Rocket 3.6 23:07:23 23° SSW 23:10:07 78° W 23:14:37 10° N
BREEZE-M DEB 4.5 23:06:39 10° SW 23:09:58 52° SSW 23:09:58 52° SSW
Cosmos 1741 Rocket 4.3 23:07:51 10° N 23:12:59 53° ENE 23:14:51 35° ESE
COSMOS 2487 2.4 23:09:29 10° NNW 23:13:07 89° WSW 23:13:44 59° SSE
YAOGAN 6 4.3 23:14:37 17° SW 23:16:24 26° W 23:19:26 10° NW
Cosmos 1408 3.6 23:15:26 20° SW 23:17:40 44° W 23:21:12 10° N
Cosmos 2297 4.1 23:16:56 36° SE 23:18:29 44° ESE 23:23:53 10° NE
CZ-4 R/B 3.8 23:14:02 10° N 23:18:45 78° WNW 23:21:34 24° SSW
IGS 5A 3.7 23:17:59 45° ESE 23:18:47 53° ENE 23:22:52 10° N
DNEPR-1 R/B 4.1 23:13:30 10° NNW 23:19:00 59° NE 23:20:38 38° ESE
SL-8 Rocket 3.9 23:17:09 26° S 23:20:55 80° E 23:27:12 10° N
APEX 3.7 23:22:47 45° E 23:22:47 45° E 23:27:09 10° NE
SL-8 R/B 4.2 23:18:40 10° W 23:23:26 60° NNW 23:28:12 10° ENE
CENTAUR R/B 4.4 23:18:07 10° NW 23:24:42 29° WSW 23:30:41 13° SSW
Cosmos 1975 Rocket 3.6 23:21:31 10° NNW 23:25:44 53° W 23:27:24 33° SSW
SL-08 RB Rocket 4.3 23:24:57 31° SSW 23:26:54 53° W 23:31:26 10° NNW
CARTOSAT-1 3.4 23:27:44 54° SSE 23:28:39 81° ENE 23:33:00 10° N
USA 229 DEB 4.3 23:25:08 10° NNW 23:32:02 51° NE 23:35:48 27° ESE
USA 229 4.3 23:25:14 10° NNW 23:32:08 50° NE 23:35:55 27° ESE
Cosmos 1242 Rocket 3.2 23:33:29 10° NNW 23:37:01 48° W 23:37:28 45° WSW
Cosmos 1536 Rocket 3.6 23:34:03 10° N 23:38:30 65° E 23:39:02 59° ESE
H-2A R/B 2.2 23:36:42 40° S 23:38:43 75° WSW 23:44:06 10° NNW
Okean 1 4.4 23:35:09 10° N 23:38:43 33° ENE 23:38:43 33° ENE
Spot 2 4.0 23:41:02 10° NNE 23:45:27 62° ESE 23:45:29 62° ESE
Cosmos 1420 Rocket 4.3 23:46:17 24° SW 23:49:24 66° WNW 23:54:37 10° NNE
Cosmos 2151 Rocket 3.6 23:49:00 58° SSW 23:49:50 81° W 23:54:24 10° N
Meteor 2-8 Rocket 4.4 23:43:45 10° N 23:49:56 85° E 23:51:55 46° SSE
Cosmos 864 Rocket 4.4 23:51:03 38° S 23:53:36 85° W 23:59:48 10° N
